(256143) = 2006 VA25

Discovered at Kitt Peak on 2006-11-10 by Spacewatch.

Orbit

Orbit type: Main Belt

Note: WebGL enabled browser required.

epoch2024-03-31.0
epoch JD2460400.5
perihelion date2023-12-14.67843
perihelion JD2460293.17843
argument of perihelion (°)354.13005
ascending node (°)83.12114
inclination (°)4.33355
eccentricity0.1090062
perihelion distance (AU)2.3264104
Tisserand w.r.t. Jupiter3.4
ΔV w.r.t. Earth (km/sec)9.6
semimajor axis (AU)2.6110288
mean anomaly (°)25.07110
mean daily motion (°/day)0.23360730
aphelion distance (AU)2.896
period (years)4.22
P-vector [x]0.22038683
P-vector [y]0.89796939
P-vector [z]0.38089450
Q-vector [x]-0.97252345
Q-vector [y]0.17225533
Q-vector [z]0.15660859
absolute magnitude16.91
phase slope0.15
uncertainty0
referenceMPEC 2024-E23
observations used397
oppositions14
arc length (days)7254
first opposition used2004
last opposition used2024
residual rms (arc-secs)0.71
perturbers coarse indicatorM-v
perturbers precise indicator003Ek
first observation date used2004-04-21.0
last observation date used2024-03-02.0
computer nameMPCLINUX
JD of orbit computation2456966.792879
perihelion JD uncertainty (days)1.5029E-04
argument of perihelion uncertainty (°)7.6899E-05
ascending node uncertainty (°)6.8826E-05
inclination uncertainty (°)3.1842E-06
eccentricity uncertainty 3.6072E-08
perihelion distance uncertainty (AU)1.0291E-07
Minimum Orbit Intersection Distances (in AU)
for orbit epoch: 2460400.5, reference: E2024-E23
Mercury2.0197
Venus1.60593
Earth1.34222
Mars0.74717
Jupiter2.31747
Saturn6.70596
Uranus15.8124
Neptune27.358

Observations

401 total observations over interval: 2004 04 21.92296 – 2024 03 02.301521
These data are available for download (format description).

Date (UT) J2000 RA J2000 Dec Magn Location Ref
2004 04 21.92296 14 02 00.76 -06 42 41.9 20.2 R 599 – Campo Imperatore-CINEOS MPS 192404
2004 04 21.93222 14 02 00.27 -06 42 40.7 20.4 R 599 – Campo Imperatore-CINEOS MPS 192404
2004 04 21.94148 14 01 59.69 -06 42 38.1 20.4 R 599 – Campo Imperatore-CINEOS MPS 192404
2004 04 21.95076 14 01 59.17 -06 42 36.4 20.7 R 599 – Campo Imperatore-CINEOS MPS 192404
2005 07 07.25723 20 20 31.39 -23 13 09.2 21.3 V 691 – Steward Observatory, Kitt Peak-Spacewatch MPS 192404
2005 07 07.27469 20 20 30.54 -23 13 14.9 21.1 V 691 – Steward Observatory, Kitt Peak-Spacewatch MPS 192404
2005 07 07.29224 20 20 29.64 -23 13 19.3 21.4 V 691 – Steward Observatory, Kitt Peak-Spacewatch MPS 192404
2006 09 30.46019 04 08 47.25 +16 52 51.3 20.4 V G96 – Mt. Lemmon Survey MPS 192404
2006 09 30.46767 04 08 47.32 +16 52 51.4 20.4 V G96 – Mt. Lemmon Survey MPS 192404
2006 09 30.47518 04 08 47.40 +16 52 51.5 20.2 V G96 – Mt. Lemmon Survey MPS 192404
2006 09 30.48265 04 08 47.47 +16 52 51.8 20.1 V G96 – Mt. Lemmon Survey MPS 192404
2006 10 12.43004 04 08 57.59 +16 53 59.9   691 – Steward Observatory, Kitt Peak-Spacewatch MPS 192404
2006 10 12.44739 04 08 57.38 +16 53 59.7   691 – Steward Observatory, Kitt Peak-Spacewatch MPS 192404
2006 10 12.46481 04 08 57.16 +16 53 59.1   691 – Steward Observatory, Kitt Peak-Spacewatch MPS 192404
2006 11 10.19147 03 51 53.98 +16 29 08.0 20.0 V 691 – Steward Observatory, Kitt Peak-Spacewatch MPS 187242
2006 11 10.20137 03 51 53.40 +16 29 07.4 20.0 V 691 – Steward Observatory, Kitt Peak-Spacewatch MPS 187242
2006 11 10.21127 03 51 52.86 +16 29 06.7 19.9 V 691 – Steward Observatory, Kitt Peak-Spacewatch MPS 187242
2006 11 14.22952 03 48 03.36 +16 23 55.5   691 – Steward Observatory, Kitt Peak-Spacewatch MPS 187242
2006 11 14.23945 03 48 02.78 +16 23 54.8   691 – Steward Observatory, Kitt Peak-Spacewatch MPS 187242
2006 11 14.24939 03 48 02.16 +16 23 54.0   691 – Steward Observatory, Kitt Peak-Spacewatch MPS 187242
2006 11 21.24606 03 41 05.40 +16 15 07.4 19.6   704 – Lincoln Laboratory ETS, New Mexico MPS 188870
2006 11 21.25855 03 41 04.62 +16 15 07.3 19.6   704 – Lincoln Laboratory ETS, New Mexico MPS 188870
2006 11 21.27086 03 41 03.65 +16 15 05.4 19.6   704 – Lincoln Laboratory ETS, New Mexico MPS 188870
2006 11 21.29548 03 41 02.25 +16 15 04.4 19.5   704 – Lincoln Laboratory ETS, New Mexico MPS 188870
2006 12 01.12197 03 31 31.42 +16 05 23.6   291 – LPL/Spacewatch II MPS 192404
2006 12 01.12582 03 31 31.18 +16 05 23.6   291 – LPL/Spacewatch II MPS 192404
2006 12 01.12983 03 31 30.96 +16 05 23.2   291 – LPL/Spacewatch II MPS 192404
2006 12 17.21369 03 19 28.41 +16 04 01.8 20.1 V G96 – Mt. Lemmon Survey MPS 192404
2006 12 17.21816 03 19 28.27 +16 04 02.2 20.0 V G96 – Mt. Lemmon Survey MPS 192404
2006 12 17.22260 03 19 28.09 +16 04 02.8 20.5 V G96 – Mt. Lemmon Survey MPS 192404
2006 12 17.22706 03 19 27.94 +16 04 03.0 20.3 V G96 – Mt. Lemmon Survey MPS 192404
2007 01 10.19944 03 15 30.31 +16 51 11.0 20.3 V G96 – Mt. Lemmon Survey MPS 195571
2007 01 10.20452 03 15 30.34 +16 51 12.2 20.4 V G96 – Mt. Lemmon Survey MPS 195571
2007 01 10.20957 03 15 30.42 +16 51 12.9 20.6 V G96 – Mt. Lemmon Survey MPS 195571
2007 01 10.21462 03 15 30.49 +16 51 13.7 21.1 V G96 – Mt. Lemmon Survey MPS 195571
2007 02 06.17215 03 31 39.90 +18 46 13.6 20.3 V G96 – Mt. Lemmon Survey MPS 198757
2007 02 06.18162 03 31 40.40 +18 46 17.2 20.9 V G96 – Mt. Lemmon Survey MPS 198757
2007 02 06.19098 03 31 40.90 +18 46 19.8 21.1 V G96 – Mt. Lemmon Survey MPS 198757
2007 02 06.20042 03 31 41.37 +18 46 22.4 20.5 V G96 – Mt. Lemmon Survey MPS 198757
2007 02 22.11926 03 49 19.34 +20 09 39.2 22.0 V G96 – Mt. Lemmon Survey MPS 200427
2007 02 22.12034 03 49 19.48 +20 09 39.8 21.2 V G96 – Mt. Lemmon Survey MPS 200427
2007 02 22.12575 03 49 19.84 +20 09 41.6 21.7 V G96 – Mt. Lemmon Survey MPS 200427
2007 02 22.12690 03 49 19.92 +20 09 41.8 20.9 V G96 – Mt. Lemmon Survey MPS 200427
2007 02 22.13238 03 49 20.38 +20 09 43.5 21.6 V G96 – Mt. Lemmon Survey MPS 200427
2007 02 22.13346 03 49 20.42 +20 09 43.7 21.1 V G96 – Mt. Lemmon Survey MPS 200427
2007 02 22.13925 03 49 20.89 +20 09 45.6 21.9 V G96 – Mt. Lemmon Survey MPS 200427
2007 02 22.14032 03 49 20.92 +20 09 45.9 21.3 V G96 – Mt. Lemmon Survey MPS 200427
2008 04 13.33008 12 33 19.22 +03 21 32.9 20.7 V G96 – Mt. Lemmon Survey MPS 246799
2008 04 13.33740 12 33 18.86 +03 21 34.6 20.7 V G96 – Mt. Lemmon Survey MPS 246799
2008 04 13.34477 12 33 18.54 +03 21 35.8 21.2 V G96 – Mt. Lemmon Survey MPS 246799
2008 04 13.35191 12 33 18.18 +03 21 37.1 20.9 V G96 – Mt. Lemmon Survey MPS 246799
2008 04 14.27813 12 32 34.76 +03 24 51.5 20.6 V G96 – Mt. Lemmon Survey MPS 246799
2008 04 14.28469 12 32 34.47 +03 24 52.9 20.8 V G96 – Mt. Lemmon Survey MPS 246799
2008 04 14.29144 12 32 34.15 +03 24 54.2 20.9 V G96 – Mt. Lemmon Survey MPS 246799
2008 04 14.29809 12 32 33.82 +03 24 55.3 20.3 V G96 – Mt. Lemmon Survey MPS 246799
2008 05 06.28992 12 19 51.92 +04 01 27.2 20.7 V G96 – Mt. Lemmon Survey MPS 249004
2008 05 06.29666 12 19 51.78 +04 01 26.9 21.4 V G96 – Mt. Lemmon Survey MPS 249004
2008 05 06.30338 12 19 51.63 +04 01 26.7 21.0 V G96 – Mt. Lemmon Survey MPS 249004
2008 05 06.31007 12 19 51.52 +04 01 27.0 21.5 V G96 – Mt. Lemmon Survey MPS 249004
2010 10 07.30279 01 56 35.22 +05 11 34.0 19.7   704 – Lincoln Laboratory ETS, New Mexico MPS 349504
2010 10 07.31596 01 56 34.60 +05 11 32.1 19.8   704 – Lincoln Laboratory ETS, New Mexico MPS 349504
2010 10 07.32917 01 56 34.04 +05 11 28.3 20.1   704 – Lincoln Laboratory ETS, New Mexico MPS 349504
2010 10 07.34238 01 56 33.27 +05 11 24.9 20.0   704 – Lincoln Laboratory ETS, New Mexico MPS 349504
2010 10 07.385435 01 56 31.483 +05 11 13.84 20.45 w F51 – Pan-STARRS 1, Haleakala MPS 366878
2010 10 07.400930 01 56 30.716 +05 11 09.97 20.52 w F51 – Pan-STARRS 1, Haleakala MPS 366878
2010 10 07.416931 01 56 29.933 +05 11 06.15 20.44 w F51 – Pan-STARRS 1, Haleakala MPS 366878
2010 10 07.433961 01 56 29.081 +05 11 01.72 20.41 w F51 – Pan-STARRS 1, Haleakala MPS 366878
2010 10 10.40061 01 54 04.32 +04 58 18.3 20.2 V G96 – Mt. Lemmon Survey MPS 351309
2010 10 10.40752 01 54 03.96 +04 58 16.3 20.1 V G96 – Mt. Lemmon Survey MPS 351309
2010 10 10.41443 01 54 03.60 +04 58 14.3 20.1 V G96 – Mt. Lemmon Survey MPS 351309
2010 10 10.42913 01 54 02.80 +04 58 10.8 19.8 V G96 – Mt. Lemmon Survey MPS 351309
2010 10 11.31957 01 53 18.17 +04 54 21.5 20.1 V 691 – Steward Observatory, Kitt Peak-Spacewatch MPS 351309
2010 10 11.33725 01 53 17.27 +04 54 17.1 20.0 V 691 – Steward Observatory, Kitt Peak-Spacewatch MPS 351309
2010 10 11.35243 01 53 16.45 +04 54 12.9 20.1 V 691 – Steward Observatory, Kitt Peak-Spacewatch MPS 351309
2010 10 12.429068 01 52 21.564 +04 49 36.85 20.18 r F51 – Pan-STARRS 1, Haleakala MPS 366878
2010 10 12.440064 01 52 20.979 +04 49 34.16 20.23 r F51 – Pan-STARRS 1, Haleakala MPS 366878
2010 10 12.480899 01 52 18.780 +04 49 23.71 20.39 w F51 – Pan-STARRS 1, Haleakala MPS 366878
2010 10 12.496411 01 52 17.934 +04 49 19.79 20.44 w F51 – Pan-STARRS 1, Haleakala MPS 366878
2010 10 12.511976 01 52 17.105 +04 49 15.70 20.28 w F51 – Pan-STARRS 1, Haleakala MPS 366878
2010 10 12.527315 01 52 16.275 +04 49 11.83 20.37 w F51 – Pan-STARRS 1, Haleakala MPS 366878
2010 10 30.24013 01 36 27.72 +03 41 18.2 20.0 V G96 – Mt. Lemmon Survey MPS 353833
2010 10 30.24495 01 36 27.46 +03 41 17.3 20.0 V G96 – Mt. Lemmon Survey MPS 353833
2010 10 30.24986 01 36 27.21 +03 41 16.4 20.1 V G96 – Mt. Lemmon Survey MPS 353833
2010 10 30.25479 01 36 26.92 +03 41 15.6 20.0 V G96 – Mt. Lemmon Survey MPS 353833
2010 10 31.18486 01 35 39.08 +03 38 27.9 19.3 V G96 – Mt. Lemmon Survey MPS 353833
2010 10 31.19256 01 35 38.68 +03 38 26.7 20.0 V G96 – Mt. Lemmon Survey MPS 353833
2010 10 31.20024 01 35 38.29 +03 38 25.2 19.4 V G96 – Mt. Lemmon Survey MPS 353833
2010 10 31.20795 01 35 37.86 +03 38 24.0 19.4 V G96 – Mt. Lemmon Survey MPS 353833
2011 02 01.23027 01 58 18.594 +09 53 38.09 22.2 w F51 – Pan-STARRS 1, Haleakala MPS 379622
2011 02 01.23427 01 58 18.887 +09 53 40.33 22.0 w F51 – Pan-STARRS 1, Haleakala MPS 379622
2011 02 01.24297 01 58 19.511 +09 53 44.77 22.2 w F51 – Pan-STARRS 1, Haleakala MPS 379622
